Regional Weather Roundup
Issued by NWS Wakefield, VA

Home | Current Version | Previous Version | Graphics & Text | Print | Product List | Glossary On
Versions: 1 2 3 4 5 6 7 8 9 10 11 12 13 14 15 16 17 18 19 20 21 22 23 24 25 26 27 28 29 30 31 32 33 34 35 36 37 38 39 40 41 42 43 44 45 46 47 48 49 50
000
ASUS41 KAKQ 262310
RWRAKQ

REGIONAL WEATHER ROUNDUP
NATIONAL WEATHER SERVICE WAKEFIELD VA
600 PM EST MON JAN 26 2015

Note: "fair" indicates few or no clouds below 12,000 feet with no
significant weather and/or obstructions to visibility. * = Denotes
station may not report precipitation (e.g., rain,snow,etc.),
thunder or fog.

VAZ042-051-052>054-056-270000-
NORTHERN VIRGINIA

CITY           SKY/WX    TMP DP  RH WIND       PRES   REMARKS
WASH NATIONAL  FLURRIES  34  28  79 N15       29.75R WCI  24
DULLES         LGT SNOW  28  25  86 N12       29.74R FOG     WCI  18
FORT BELVOIR   CLOUDY    33  29  85 VRB6      29.74R
QUANTICO       LGT RAIN  34  29  82 N12       29.74R
FREDERICKSBRG* CLOUDY    34  34 100 N8        29.71S
STAFFORD*      MIX PCPN  32  32  99 CALM      29.76R
WARRENTON      CLOUDY    32  32 100 N8        29.72R
CULPEPER*      CLOUDY    34  30  86 N7        29.73R
MANASSAS*      CLOUDY    30  30 100 N10       29.74R FOG     WCI  21
LEESBURG*      FLURRIES  28  28 100 N13       29.76R WCI  18
WINCHESTER     LGT SNOW  28  23  80 N5        29.75R
FRONT ROYAL*   CLOUDY    28  27  93 NE6       29.73R
LURAY*         CLOUDY    32  32 100 N12       29.71R WCI  23
$$

VAZ048-049-060>072-079>083-270000-
CENTRAL AND SOUTH CENTRAL VIRGINIA

CITY           SKY/WX    TMP DP  RH WIND       PRES   REMARKS
RICHMOND       CLOUDY    37  35  92 N12       29.66R
CHESTERFIELD*  CLOUDY    37  25  60 N12       29.68R
PETERSBURG*    CLOUDY    40  38  93 N10       29.66R
HANOVER        CLOUDY    34  32  92 VRB6      29.70R
TAPPAHANNOCK*  CLOUDY    36  32  86 NW10      29.67F
QUINTON*       CLOUDY    36  34  92 N9G17     29.66R
CHARLOTTSVILLE CLOUDY    33  30  88 NE13      29.70R FOG     WCI  24
GORDONSVILLE*  CLOUDY    32  30  92 NE6       29.70R
ORANGE*        CLOUDY    34  32  93 N10       29.72S
LOUISA*        CLOUDY    34  34 100 N8        29.69R FOG
BUMPASS*       CLOUDY    33  32  96 N5        29.69R
FARMVILLE*     CLOUDY    38  38 100 N7        29.66R
CREWE*         CLOUDY    37  36  95 N3        29.65R
FORT PICKETT*  CLOUDY    38  37  97 N12       29.65R
CHASE CITY*    CLOUDY    42  42 100 NW6       29.65R
CLARKSVILLE*   CLOUDY    41  37  87 N5        29.64R
SOUTH HILL*    CLOUDY    41  38  89 N12       29.69R
LAWRENCEVILLE* CLOUDY    43  39  88 N10       29.62R
EMPORIA*       CLOUDY    43  37  81 NW12      29.64R
$$

VAZ088>098-270000-
SOUTHEAST VIRGINIA

CITY           SKY/WX    TMP DP  RH WIND       PRES   REMARKS
NORFOLK        CLOUDY    41  37  86 N10G23    29.58R
VIRGINIA BEACH CLOUDY    42  39  89 NW21G28   29.56R
NORFOLK NAVAL  CLOUDY    44  38  79 N17G26    29.60R
WEST POINT*    CLOUDY    40  35  81 NW6       29.66S
SALUDA*        CLOUDY    38  35  90 N12G18    29.62F
NEWPORT NEWS   CLOUDY    44  38  79 N16G24    29.60S
LANGLEY AFB    CLOUDY    41  37  87 N16G22    29.59R
FORT EUSTIS    CLOUDY    41  40  96 N13G18    29.59S
WILLIAMSBURG*    N/A     43  37  81 N8G16     29.63R
HR EXEC AP*    CLOUDY    45  37  76 N6        29.61R
FRANKLIN*      CLOUDY    46  38  76 N12       29.60R
WAKEFIELD      CLOUDY    42  36  79 N8G18     29.62R
$$

VAZ020-022-025-037-045-270000-
WEST CENTRAL AND SOUTHWEST VIRGINIA

CITY           SKY/WX    TMP DP  RH WIND       PRES   REMARKS
STAUNTON*      CLOUDY    32  31  94 NE10      29.69R FOG     WCI  24
WAYNESBORO*    CLOUDY    32  32 100 N6        29.65R
HOT SPRINGS VA SNOW      29  29 100 W15       29.55S VSB<1/4 WCI  18
LYNCHBURG      CLOUDY    37  35  92 NE8       29.67R
DANVILLE       CLOUDY    44  37  76 NE7       29.65R
SOUTH BOSTON*  CLOUDY    41  37  86 N6        29.66R
MARTINSVILLE   CLOUDY    43  34  69 NW10G17   29.68R
ROANOKE        CLOUDY    40  31  70 NW13      29.68R
BLACKSBURG     CLOUDY    32  27  80 W8        29.71R
DUBLIN*        FLURRIES  32  27  81 W10       29.72R WCI  24
MARION*        FLURRIES  29  23  78 W17G26    29.75R WCI  17
HILLSVILLE*    FLURRIES  30  27  87 NW21      29.67R WCI  17
RICHLANDS*     FLURRIES  25  22  89 NW8       29.75R
WISE*          CLOUDY    27  27 100 W5        29.79R
ABINGDON*      CLOUDY    31  27  83 N14       29.78R WCI  21
$$

MDZ021>025-VAZ099-100-270000-
SOUTHERN MARYLAND AND THE DELMARVA PENINSULA

CITY           SKY/WX    TMP DP  RH WIND       PRES   REMARKS
PATUXENT RIVER DRIZZLE   36  32  85 N13       29.67R
BAY BRIDGE APT LGT SNOW  32  28  86 N15       29.72S WCI  22
LEONARDTOWN    CLOUDY    34  32  93 N8        29.68
DOVER          LGTSLEET  30  30 100 N17       29.69S WCI  18
GEORGETOWN     LGT RAIN  34  32  92 N18G30    29.64R WCI  23
EASTON         CLOUDY    34  34 100 N13G21    29.72R WCI  25
CAMBRIDGE      CLOUDY    36  32  87 N14       29.66R
SALISBURY      LGT RAIN  39  35  86 N13G23    29.60F
OCEAN CITY     LGT RAIN  39  38  96 N20G31    29.56S FOG
WALLOPS ISLAND CLOUDY    40  36  86 N21G30    29.56F
ACCOMACK*      CLOUDY    41  36  81 N13G21    29.56F
$$

NCZ012>017-030>032-270000-
NORTH CENTRAL AND EASTERN NORTH CAROLINA

CITY           SKY/WX    TMP DP  RH WIND       PRES   REMARKS
ROANOKE RAPIDS CLOUDY    46  41  81 NW7       29.61R
RALEIGH        CLOUDY    46  39  76 CALM      29.63R
ELIZABETH CITY CLOUDY    46  41  81 NW13      29.56R
AHOSKIE*       CLOUDY    48  38  68 N8        29.60R
EDENTON*       CLOUDY    48  42  77 N5        29.57R
CURRITUCK*     CLOUDY    46  40  81 NW9G16    29.56R
KILL DEVIL HLS CLOUDY    46  45  95 NW7       29.52R
MANTEO         CLOUDY    46  43  87 NW8       29.54R
CAPE HATTERAS  PTCLDY    48  46  93 NW10      29.51S
TARBORO*       CLOUDY    49  42  75 NW10      29.61R
GOLDSBORO      CLOUDY    49  49  98 NW8       29.59R
WASHINGTON     CLOUDY    48  43  80 NW3       29.57S
GREENVILLE     CLOUDY    50  43  76 N8        29.62R
NEW BERN       RAIN      51  41  68 N3        29.58R
WILMINGTON     CLOUDY    51  41  68 NW14      29.59R
$$

VAZ048-270000-
ELSEWHERE

CITY           SKY/WX    TMP DP  RH WIND       PRES   REMARKS
HARRISBURG PA  FLURRIES  24  18  77 E7        29.80R
BALTIMORE      LGTSLEET  30  25  80 NE13      29.73R FOG     WCI  20
ANNAPOLIS      CLOUDY    32  27  81 N13       29.73R WCI  22
ANDREWS AFB    FLURRIES  32  30  93 N7        29.71R
PHILADELPHIA   CLOUDY    27  21  78 NE23G30   29.77F WCI  12
HENDERSON NC   CLOUDY    42  38  87 NW5       29.64R
GREENSBORO     CLOUDY    44  37  76 N5        29.63R
ROCKY MOUNT    CLOUDY    48  40  73 NW9       29.61R
$$

VAZ100-270000-
MARINE

STATION/POSITION TIME  TEMP    WIND        PRES    WAVE   SWELL
                       AIR SEA DIR/SP/G            HT/PER HT/PER
                 (UTC) (F)     (DEG/KT/KT) (MB)    (FT/S) (FT/S)
BRANDYWINE LGT   2300   34 37   40/ 29/ 32 1003.7R
CAPE MAY NJ      2300   36 39   30/ 15/ 23 1003.0R
LEWES DE         2300   37 39   30/ 22/ 25 1003.1R
15NM E FENWICK I 2300   41 43               999.7S  12/ 8
OCEAN-CITY-INLET 2300   39 40   30/ 14/ 22 1000.7S
WACHAPREAGUE VA  2300   43 42  360/  7/ 13 1000.7F
THOMAS POINT MD  2300   32 37   30/ 23/ 26 1007.0R
COVE POINT MD    2300   35      20/ 18/ 20 1004.6R
SOLOMONS ISLAND  2300      39                N/A
BISHOPS HEAD MD  2300   38 40   20/ 13/ 20 1002.4F
PINEY POINT MD   2300          360/ 15/ 18   N/A
CAMBRIDGE MD     2300   35 37   20/ 14/ 19 1004.3R
LEWISETTA VA     2300   36 39  340/ 12/ 17 1003.9F
RAPPAHANNOCK LGT 2300          330/ 26/ 28 1001.5F
YORK RVR RNG VA  2300   40     350/ 22/ 25 1001.0R
YORKTOWN VA      2300   40 41  330/ 16/ 18 1002.0S
DOMINION TERM VA 2300   44      40/  4/ 10 1001.4R
KIPTOPEKE VA     2300      46  350/ 21/ 26   N/A
CHES BAY BRIDGE  2300   40 42  330/ 24/ 28 1000.7R
CAPE HENRY VA    2300   40     330/ 27/ 32  999.6R
CHESAPEAKE LGHT  2200   43     330/ 26/ 29 1000.3F
WILLOUBY STN VA  2300   41     350/ 22/ 27 1001.7R
S CRANEY ISL VA  2300          350/ 10/ 13 1001.4R
CAPE HENRY BUOY  2200      45                N/A     4/ 4
CAPE CHARLES BUO 2300      44                N/A     4/ 3   2/ 9
OFFSHORE WE BUOY 2300      47                N/A     4/ 6   2/ 9
64NM E OF VA BCH 2300   51 52  330/ 19/ 25  997.0F   4/ 6   2/ 7
DUCK PIER NC     2300   45 44  330/ 19/ 22  998.9R
44100 DUCK FRF   2300      45                N/A     4/ 4   2/11
44056 DUCK FRF   2300      44                N/A     3/ 4   2/11
OREGON INLET NC  2300   47 46  320/ 16/ 20  999.4R
HATTERAS NC      2300   49 54  300/ 15/ 17  999.7S
DIAMOND SHLS NC  2300   55 70  310/ 16/ 19  998.7R   3/ 7   3/ 7
CAPE LOOKOUT NC  2200   51     270/  7/  8 1000.1R
$$


USA.gov is the U.S. government's official web portal to all federal, state and local government web resources and services.